Location: Cahas Mountain Overlook
(37.0833°N, 80.1000°W)
Time: 11:39:54
(UTC-05:00)

SR - Pass Details

Date: 07 December 2023
Orbit: 574 x 867 km, 66.7° (Epoch: 29 February)

Event Time Altitude Azimuth Distance (km) Brightness Sun altitude
Rises 16:59:25 0° 360° (N) 3,452 ? -0.2°
Enters shadow 17:05:30 - 44° (NE) 3,419 ? -1.3°
Exits shadow 17:35:00 -53° 128° (SE) 10,905 ? -6.6°
Reaches altitude 10° 18:43:23 10° 5° (N) 2,481 ? -19.4°
Maximum altitude 18:47:05 17° 45° (NE) 1,976 - -20.2°
Drops below altitude 10° 18:50:39 10° 86° (E) 2,385 - -20.9°
Sets 18:53:52 0° 106° (ESE) 3,257 - -21.5°
